San Bernardino, CA

7:02 AM PST on December 09, 2019 (GMT -0800)
San Bernardino International

Weather History for KSBD - November, 2019

Change the Weather History Date:

Friday, November 15, 2019

  Actual Average Record
Temperature  
Mean Temperature 61 °F -  
Max Temperature 73 °F 71 °F 86 °F (2016)
Min Temperature 49 °F 42 °F 45 °F (2018)
Degree Days  
Heating Degree Days 4    
Growing Degree Days 11 (Base 50)    
Moisture  
Dew Point 45 °F    
Average Humidity 63    
Maximum Humidity 78    
Minimum Humidity 31    
Precipitation  
Precipitation 0.00 in - - ()
Sea Level Pressure  
Sea Level Pressure 30.07 in    
Wind  
Wind Speed 1 mph ()    
Max Wind Speed 10 mph    
Max Gust Speed -    
Visibility 5.2 miles    
Events      
Averages and records for this station are not official NWS values.
T = Trace of Precipitation, MM = Missing Value Source: Averaged Metar Reports

Daily Weather History Graph

Daily Weather History Graph

Search for Another Location

Airport or City:

Astronomy

Nov. 15, 2019 Rise Set
Actual Time 6:21 AM PST 4:45 PM PST
Civil Twilight 5:54 AM PST 5:11 PM PST
Nautical Twilight 5:24 AM PST 5:41 PM PST
Astronomical Twilight 4:54 AM PST 6:11 PM PST
Moon 7:29 PM PST (11/15) 9:17 AM PST (11/15)
Length of Visible Light 11h 16m
Length of Day
10h 23m
Waning Gibbous, 89% of the Moon is Illuminated
Nov 15
Waning Gibbous
Nov 19
Last Quarter
Nov 26
New
Dec 3
First Quarter
Dec 11
Full

Hourly Weather History & Observations

Time (PST) Temp. Dew Point Humidity Pressure Visibility Wind Dir Wind Speed Gust Speed Precip Events Conditions
12:00 AM 58.8 °F 50.0 °F 73% 30.13 in 5.0 mi ENE 3.5 mph - N/A   Haze
12:23 AM 58.8 °F 49.6 °F 72% 30.12 in 5.0 mi Calm Calm - N/A   Haze
12:41 AM 57.9 °F 48.7 °F 71% 30.12 in 5.0 mi Calm Calm - N/A   Haze
1:02 AM 57.2 °F 48.7 °F 73% 30.12 in 5.0 mi Calm Calm - N/A   Haze
1:40 AM 55.6 °F 47.1 °F 73% 30.12 in 5.0 mi Calm Calm - N/A   Haze
2:04 AM 55.4 °F 46.4 °F 72% 30.12 in 5.0 mi Calm Calm - N/A   Haze
2:22 AM 55.4 °F 46.4 °F 72% 30.11 in 5.0 mi Calm Calm - N/A   Haze
2:40 AM 54.3 °F 45.1 °F 71% 30.11 in 5.0 mi Calm Calm - N/A   Haze
3:00 AM 53.1 °F 45.9 °F 77% 30.10 in 4.0 mi Calm Calm - N/A   Haze
3:20 AM 52.9 °F 44.4 °F 73% 30.10 in 5.0 mi Calm Calm - N/A   Haze
3:44 AM 51.3 °F 42.8 °F 73% 30.10 in 7.0 mi Calm Calm - N/A   Clear
4:02 AM 50.4 °F 43.3 °F 77% 30.10 in 5.0 mi Calm Calm - N/A   Haze
4:20 AM 50.9 °F 42.1 °F 72% 30.10 in 7.0 mi Calm Calm - N/A   Clear
4:41 AM 51.3 °F 41.5 °F 69% 30.11 in 7.0 mi Calm Calm - N/A   Clear
5:00 AM 51.6 °F 42.3 °F 70% 30.11 in 7.0 mi Calm Calm - N/A   Clear
5:24 AM 49.8 °F 39.0 °F 66% 30.12 in 7.0 mi Calm Calm - N/A   Clear
5:42 AM 50.7 °F 37.0 °F 59% 30.12 in 10.0 mi Calm Calm - N/A   Clear
7:00 AM 50.0 °F 39.2 °F 66% 30.11 in 6.0 mi Calm Calm - N/A   Haze
7:45 AM 55.4 °F 41.0 °F 58% 30.12 in 6.0 mi Calm Calm - N/A   Haze
8:46 AM 60.8 °F 41.0 °F 48% 30.12 in 5.0 mi Calm Calm - N/A   Haze
9:47 AM 66.2 °F 44.6 °F 46% 30.12 in 5.0 mi Calm Calm - N/A   Haze
10:10 AM 64.4 °F 50.0 °F 59% 30.13 in 4.0 mi SW 10.4 mph - N/A   Haze
10:49 AM 64.4 °F 50.0 °F 59% 30.11 in 3.0 mi WSW 6.9 mph - N/A   Haze
11:47 AM 68.0 °F 48.2 °F 49% 30.08 in 4.0 mi West 6.9 mph - N/A   Haze
12:50 PM 73.4 °F 41.0 °F 31% 30.04 in 3.0 mi West 8.1 mph - N/A   Scattered Clouds
1:50 PM 73.4 °F 44.6 °F 36% 30.02 in 3.0 mi Calm Calm - N/A   Haze
2:50 PM 73.4 °F 41.0 °F 31% 29.99 in 3.0 mi Calm Calm - N/A   Haze
3:50 PM 73.4 °F 41.0 °F 31% 29.98 in 4.0 mi SW 3.5 mph - N/A   Haze
4:47 PM 69.8 °F 46.4 °F 43% 30.00 in 4.0 mi WSW 10.4 mph - N/A   Haze
5:50 PM 68.0 °F 46.4 °F 46% 30.00 in 4.0 mi Calm Calm - N/A   Mostly Cloudy
6:50 PM 64.4 °F 46.4 °F 52% 30.00 in 4.0 mi WSW 4.6 mph - N/A   Haze
7:50 PM 60.8 °F 50.0 °F 68% 30.02 in 4.0 mi WSW 5.8 mph - N/A   Haze
8:50 PM 60.8 °F 50.0 °F 68% 30.02 in 4.0 mi Calm Calm - N/A   Haze
9:40 PM 59.4 °F 50.0 °F 71% 30.02 in 7.0 mi Calm Calm - N/A   Clear
10:03 PM 57.2 °F 48.6 °F 73% 30.02 in 7.0 mi ENE 4.6 mph - N/A   Clear
10:21 PM 56.5 °F 48.0 °F 73% 30.01 in 7.0 mi ENE 5.8 mph - N/A   Clear
10:40 PM 53.8 °F 46.8 °F 77% 30.01 in 5.0 mi East 3.5 mph - N/A   Haze
11:00 PM 54.0 °F 47.1 °F 78% 30.02 in 5.0 mi Calm Calm - N/A   Haze
11:20 PM 55.8 °F 47.8 °F 75% 30.02 in 7.0 mi Calm Calm - N/A   Clear
11:43 PM 55.0 °F 46.9 °F 74% 30.02 in 7.0 mi SE 4.6 mph - N/A   Clear